Location: Berlin
(52.5143°N, 13.2640°E)
Time: 05:18:23
(UTC+02:00)

ISS - Visible Passes

Search period start: 21 October 2018 00:00
Search period end: 30 October 2018 23:00
Orbit: 403 x 408 km, 51.6° (Epoch: 21 October)

Date Brightness Start Highest point End Pass type
(mag) Time Alt. Az. Time Alt. Az. Time Alt. Az.
26 Oct -0.7 07:07:59 10° S 07:09:34 13° SE 07:11:07 10° ESE visible
28 Oct -1.4 05:59:02 10° SSW 06:01:39 22° SSE 06:04:17 10° E visible
29 Oct -1.0 05:07:50 10° S 05:09:49 15° SE 05:11:47 10° ESE visible
30 Oct -2.4 05:50:45 10° SW 05:53:47 36° SSE 05:56:51 10° E visible
